CW0060 Weather Reports


Display with metric or nautical units.
time (UTC)temp
F
wind
direction
speed
MPH
gust
MPH
rain 1hr
in
rain 24hr
in
rain mn
in
humidity
%
barometer
mb
20260506160232 63 219 6.0 12.0 0.00 0.32 0.00 60 1004.2
20260506155705 63 224 6.0 9.0 0.00 0.34 0.00 60 1004.2
20260506155205 63 217 6.0 9.0 0.00 0.35 0.00 63 1004.2
20260506154206 63 222 7.0 12.0 0.00 0.40 0.00 61 1004.2
20260506153705 63 220 7.0 10.0 0.00 0.50 0.00 61 1004.2
20260506152705 63 222 6.0 10.0 0.00 0.71 0.00 61 1004.3
20260506152207 63 224 6.0 10.0 0.00 0.77 0.00 63 1004.3
20260506151706 63 243 6.0 11.0 0.00 0.89 0.00 59 1004.2
20260506150705 64 212 6.0 11.0 0.00 1.02 0.00 59 1004.1
20260506150205 64 210 6.0 11.0 0.00 1.02 0.00 59 1004.1
20260506145206 65 215 7.0 11.0 0.00 1.02 0.00 57 1004.2
20260506144706 65 236 6.0 11.0 0.00 1.02 0.00 55 1004.2
20260506144208 65 212 6.0 13.0 0.00 1.02 0.00 60 1004.1
20260506143205 65 221 8.0 13.0 0.00 1.02 0.00 56 1004.2
20260506142705 64 214 7.0 13.0 0.00 1.02 0.00 58 1004.3
20260506142209 64 202 6.0 10.0 0.00 1.02 0.00 59 1004.3
20260506141706 64 245 5.0 16.0 0.00 1.02 0.00 59 1004.2
20260506141205 64 238 7.0 16.0 0.00 1.02 0.00 56 1004.2
20260506140705 64 231 6.0 9.0 0.00 1.02 0.00 56 1004.3
20260506140205 64 229 4.0 8.0 0.00 1.02 0.00 60 1004.2
20260506135205 64 161 6.0 14.0 0.00 1.02 0.00 59 1004.1
20260506134205 64 236 5.0 8.0 0.00 1.02 0.00 62 1004.2
20260506133205 64 233 5.0 11.0 0.00 1.02 0.00 61 1004.3
20260506132705 64 229 6.0 11.0 0.00 1.02 0.00 61 1004.4
20260506132206 63 245 5.0 11.0 0.00 1.02 0.00 62 1004.4
20260506131706 63 222 6.0 12.0 0.00 1.02 0.00 62 1004.4
20260506131208 64 240 7.0 12.0 0.00 1.02 0.00 60 1004.3
20260506130205 65 255 4.0 10.0 0.00 1.02 0.00 62 1004.1
20260506125705 65 245 5.0 10.0 0.00 1.02 0.00 61 1004.1
20260506125206 64 151 5.0 10.0 0.00 1.02 0.00 63 1004.2
20260506124708 64 264 4.0 11.0 0.00 1.02 0.00 62 1004.2
20260506124205 64 226 5.0 11.0 0.00 1.02 0.00 66 1004.3
20260506123708 63 219 6.0 12.0 0.00 1.02 0.00 64 1004.3
20260506123209 63 240 7.0 12.0 0.00 1.02 0.00 61 1004.4
20260506122705 63 276 6.0 12.0 0.00 1.02 0.00 63 1004.4
20260506122206 62 148 6.0 12.0 0.00 1.02 0.00 64 1004.5
20260506121706 63 201 7.0 13.0 0.00 1.02 0.00 63 1004.5
20260506121205 62 210 7.0 13.0 0.00 1.02 0.00 66 1004.5
20260506120705 63 250 8.0 13.0 0.00 1.02 0.00 64 1004.5
20260506120205 64 207 7.0 12.0 0.00 1.02 0.00 63 1004.5
20260506115705 64 229 6.0 13.0 0.00 1.02 0.00 64 1004.4
20260506114705 64 252 7.0 11.0 0.00 1.02 0.00 63 1004.5
20260506114206 64 221 5.0 7.0 0.00 1.02 0.00 66 1004.6
20260506113706 62 210 5.0 13.0 0.00 1.02 0.00 69 1004.6
20260506113206 61 245 6.0 13.0 0.00 1.02 0.00 71 1004.6
20260506112213 61 207 7.0 13.0 0.00 1.02 0.00 67 1004.7
20260506111705 62 214 8.0 13.0 0.00 1.02 0.00 68 1004.7
20260506110205 65 163 7.0 13.0 0.00 1.02 0.00 70 1004.6
20260506105205 64 160 6.0 12.0 0.00 1.02 0.00 68 1004.9
20260506104705 63 243 5.0 9.0 0.00 1.02 0.00 73 1004.9
20260506102206 62 229 8.0 13.0 0.00 1.02 0.00 72 1005.0
20260506101705 62 217 8.0 13.0 0.00 1.02 0.00 67 1005.0
20260506101205 63 231 7.0 13.0 0.00 1.02 0.00 70 1004.9
20260506100706 63 229 7.0 14.0 0.00 1.02 0.00 71 1004.9
20260506100227 63 180 7.0 14.0 0.00 1.02 0.00 71 1005.0
20260506095706 62 222 8.0 14.0 0.00 1.02 0.00 71 1004.9
20260506095205 62 210 6.0 12.0 0.00 1.02 0.00 73 1004.9
20260506094705 61 250 5.0 11.0 0.00 1.02 0.00 76 1004.7
20260506094205 60 239 6.0 11.0 0.00 1.02 0.00 76 1005.0
20260506093705 60 214 6.0 14.0 0.00 1.02 0.00 73 1005.0
20260506093205 60 253 6.0 14.0 0.00 1.02 0.00 74 1004.9
20260506092705 60 197 6.0 14.0 0.00 1.02 0.00 77 1005.0
20260506092206 60 245 5.0 9.0 0.00 1.02 0.00 75 1005.1
20260506091706 60 214 3.0 6.0 0.00 1.02 0.00 76 1005.2
20260506090706 58 240 2.0 5.0 0.00 1.02 0.00 82 1005.2
20260506085705 58 46 3.0 7.0 0.00 1.02 0.00 82 1005.4
20260506085206 58 250 3.0 7.0 0.00 1.02 0.00 83 1005.4
20260506084705 57 283 3.0 7.0 0.00 1.02 0.00 82 1005.4
20260506083705 57 269 3.0 11.0 0.00 1.02 0.00 84 1005.2
20260506083206 57 269 4.0 11.0 0.00 1.02 0.00 82 1005.1
20260506082706 57 231 4.0 7.0 0.00 1.02 0.00 84 1005.3
20260506082206 57 264 4.0 8.0 0.00 1.02 0.00 83 1005.1
20260506081706 57 226 4.0 9.0 0.00 1.02 0.00 83 1005.1
20260506081206 57 269 5.0 10.0 0.00 1.02 0.00 84 1005.0
20260506080706 57 207 5.0 10.0 0.00 1.02 0.00 83 1005.0
20260506080205 57 194 6.0 12.0 0.00 1.02 0.00 85 1005.0
20260506072705 55 224 7.0 12.0 0.00 1.02 0.00 88 1005.1
20260506072206 55 265 7.0 13.0 0.00 1.02 0.00 88 1005.1
20260506071705 55 234 7.0 13.0 0.00 1.02 0.00 89 1005.2
20260506071205 54 224 7.0 13.0 0.00 1.02 0.00 90 1005.1
20260506070705 54 240 7.0 11.0 0.00 1.02 0.00 91 1005.1
20260506070205 54 208 7.0 11.0 0.00 1.02 0.00 91 1005.1
20260506062206 53 200 6.0 10.0 0.00 1.02 0.00 93 1005.2
20260506061706 53 201 5.0 10.0 0.00 1.02 0.00 94 1005.2
20260506060705 53 207 7.0 11.0 0.00 1.02 0.00 94 1005.1
20260506060206 53 212 6.0 11.0 0.00 1.02 0.00 94 1005.1
20260506050705 51 194 3.0 5.0 0.00 1.02 0.00 94 1005.2
20260506050206 51 219 2.0 5.0 0.00 1.02 0.00 94 1005.1
20260506044706 51 207 3.0 6.0 0.00 1.02 0.00 94 1005.2
20260506044206 51 185 3.0 8.0 0.00 1.02 0.00 94 1005.1
20260506043705 51 214 3.0 8.0 0.00 1.02 0.00 94 1005.1
20260506042205 51 190 1.0 3.0 0.00 1.02 0.00 94 1005.3
20260506041708 51 160 1.0 5.0 0.00 1.02 0.00 94 1005.2
20260506041205 51 135 1.0 5.0 0.00 1.02 0.00 94 1005.1
20260506040705 51 178 2.0 5.0 0.00 1.02 0.00 94 1005.0
20260506040205 51 156 2.0 4.0 0.00 1.02 0.00 94 1005.1
20260506035705 51 205 2.0 6.0 0.00 1.02 0.00 94 1005.1
20260506035206 51 212 3.0 9.0 0.00 1.02 0.00 94 1005.1
20260506034706 51 248 5.0 9.0 0.00 1.02 0.00 94 1005.2
20260506034205 51 222 5.0 9.0 0.00 1.02 0.00 94 1005.2
20260506033705 51 219 4.0 6.0 0.00 1.02 0.00 94 1005.3
20260506033205 51 207 3.0 5.0 0.00 1.02 0.00 94 1005.4
20260506032705 51 193 2.0 4.0 0.00 1.02 0.00 94 1005.3
20260506032206 51 170 2.0 4.0 0.00 1.02 0.00 94 1005.3
20260506031708 51 188 2.0 4.0 0.00 1.02 0.00 94 1005.1
20260506031205 51 178 2.0 4.0 0.00 1.02 0.00 94 1005.1
20260506030705 51 191 2.0 4.0 0.00 1.02 0.00 94 1005.2
20260506030205 51 222 2.0 5.0 0.00 1.02 0.00 93 1005.4
20260506025206 51 163 3.0 6.0 0.00 1.02 0.00 94 1005.3
20260506024705 52 195 3.0 6.0 0.00 1.02 0.00 94 1005.3
20260506024206 52 212 3.0 5.0 0.00 1.02 0.00 94 1005.3
20260506023208 52 156 3.0 6.0 0.00 1.02 0.00 93 1005.4
20260506022706 52 194 4.0 6.0 0.00 1.02 0.00 93 1005.4
20260506022205 52 212 4.0 6.0 0.00 1.02 0.00 94 1005.4
20260506021705 52 212 3.0 7.0 0.00 1.02 0.00 94 1005.3
20260506020705 52 236 4.0 8.0 0.00 1.02 0.00 94 1005.5
20260506020205 52 226 5.0 8.0 0.00 1.02 0.00 94 1005.6
20260506015705 52 265 5.0 8.0 0.00 1.02 0.00 94 1005.5
20260506015205 52 208 5.0 8.0 0.00 1.02 0.00 94 1005.6
20260506013706 52 234 4.0 7.0 0.00 1.02 0.00 94 1005.6
20260506013205 52 229 4.0 8.0 0.00 1.02 0.00 94 1005.6
20260506012705 53 217 4.0 8.0 0.00 1.02 0.00 93 1005.6
20260506012205 53 220 5.0 7.0 0.00 1.02 0.00 93 1005.6
20260506010705 53 202 4.0 8.0 0.00 1.02 0.00 93 1005.7
20260506010228 53 224 5.0 8.0 0.00 1.02 0.00 93 1005.8
20260506005705 53 210 5.0 8.0 0.00 1.02 0.00 93 1005.8
20260506005206 53 203 6.0 7.0 0.00 1.02 0.00 93 1005.8
20260506004705 53 210 5.0 8.0 0.00 1.02 0.00 93 1005.9
20260506004205 53 200 4.0 8.0 0.00 1.02 0.00 93 1005.8
20260506003705 53 214 4.0 8.0 0.00 1.02 0.00 93 1005.8
20260506002706 53 214 5.0 9.0 0.00 1.02 0.00 93 1005.7
20260506002206 53 222 5.0 11.0 0.01 1.02 0.00 93 1005.8
20260506001706 53 219 6.0 11.0 0.01 1.02 0.00 93 1005.9
20260506000705 53 222 4.0 8.0 0.01 1.02 0.00 93 1005.9
20260506000205 54 226 3.0 5.0 0.01 1.02 1.02 93 1005.8
20260505235705 54 248 3.0 9.0 0.02 1.02 1.02 93 1005.9
20260505235205 54 217 4.0 9.0 0.02 1.02 1.02 93 1006.0
20260505234205 54 219 5.0 8.0 0.04 1.02 1.02 93 1006.0
20260505233706 54 238 5.0 8.0 0.04 1.02 1.02 93 1006.0
20260505233206 54 240 5.0 9.0 0.05 1.02 1.02 93 1006.1
20260505232706 54 222 5.0 9.0 0.04 1.02 1.02 93 1006.1
20260505232206 54 195 5.0 7.0 0.06 1.02 1.02 93 1006.1
20260505231706 54 221 4.0 7.0 0.06 1.02 1.02 93 1006.1
20260505231206 54 200 4.0 7.0 0.06 1.02 1.02 93 1006.1
20260505230705 54 193 4.0 7.0 0.06 1.02 1.02 93 1006.1
20260505230206 54 226 3.0 7.0 0.05 1.01 1.01 93 1006.1
20260505225706 54 229 2.0 4.0 0.05 1.01 1.01 93 1006.2
20260505225206 54 229 2.0 6.0 0.04 1.00 1.00 93 1006.2
20260505224205 54 203 4.0 6.0 0.02 0.98 0.98 93 1006.2
20260505223705 54 187 3.0 6.0 0.02 0.98 0.98 93 1006.2
20260505223205 54 184 3.0 4.0 0.02 0.98 0.98 93 1006.2
20260505222206 54 143 1.0 3.0 0.00 0.96 0.96 93 1006.2
20260505221705 54 187 1.0 2.0 0.00 0.96 0.96 93 1006.2
20260505221206 54 135 1.0 2.0 0.00 0.96 0.96 93 1006.3
20260505220705 54 112 1.0 2.0 0.00 0.96 0.96 93 1006.3
20260505220205 54 127 1.0 2.0 0.00 0.96 0.96 93 1006.3
20260505215706 54 108 1.0 2.0 0.00 0.96 0.96 93 1006.3
20260505215205 54 167 1.0 1.0 0.00 0.96 0.96 93 1006.3
20260505214705 54 222 0.0 2.0 0.00 0.96 0.96 93 1006.3
20260505214205 54 89 0.0 3.0 0.00 0.96 0.96 93 1006.3
20260505213705 54 222 1.0 4.0 0.00 0.96 0.96 93 1006.4
20260505213206 54 269 2.0 4.0 0.00 0.96 0.96 93 1006.4
20260505212706 54 233 2.0 4.0 0.00 0.96 0.96 93 1006.4
20260505212206 54 245 1.0 4.0 0.00 0.96 0.96 93 1006.4
20260505211705 54 178 1.0 4.0 0.00 0.96 0.96 93 1006.4
20260505211206 54 231 1.0 4.0 0.00 0.96 0.96 93 1006.4
20260505210705 54 205 1.0 3.0 0.00 0.96 0.96 93 1006.5
20260505210205 53 117 1.0 3.0 0.00 0.96 0.96 93 1006.5
20260505205708 53 135 1.0 3.0 0.00 0.96 0.96 92 1006.5
20260505205206 53 190 2.0 3.0 0.00 0.96 0.96 92 1006.5
20260505204705 53 155 1.0 3.0 0.00 0.96 0.96 92 1006.5
20260505204205 53 236 1.0 3.0 0.00 0.96 0.96 92 1006.5
20260505203708 53 222 2.0 3.0 0.00 0.96 0.96 92 1006.5
20260505203206 53 124 1.0 3.0 0.00 0.96 0.96 92 1006.5
20260505202704 53 117 1.0 2.0 0.00 0.96 0.96 92 1006.5
20260505202205 54 124 1.0 2.0 0.00 0.96 0.96 92 1006.4
20260505201706 54 89 1.0 2.0 0.00 0.96 0.96 92 1006.5
20260505201205 54 51 1.0 2.0 0.00 0.96 0.96 92 1006.4
20260505200706 54 117 1.0 3.0 0.00 0.96 0.96 92 1006.5
20260505200205 54 104 1.0 3.0 0.00 0.96 0.96 92 1006.4
20260505195705 54 53 2.0 3.0 0.00 0.96 0.96 92 1006.4
20260505194706 54 56 1.0 2.0 0.00 0.96 0.96 92 1006.3
20260505194204 55 63 0.0 2.0 0.00 0.96 0.96 92 1006.3
20260505193705 55 117 0.0 3.0 0.00 0.96 0.96 92 1006.3
20260505193205 55 178 1.0 3.0 0.00 0.96 0.96 92 1006.2
20260505192705 55 231 1.0 3.0 0.00 0.96 0.96 92 1006.2
20260505192205 55 314 1.0 3.0 0.00 0.96 0.96 92 1006.2
20260505191716 55 283 1.0 4.0 0.01 0.96 0.96 92 1006.2
20260505191209 55 286 2.0 4.0 0.01 0.96 0.96 92 1006.2
20260505190205 55 264 2.0 3.0 0.01 0.96 0.96 92 1006.1
20260505185205 56 302 1.0 3.0 0.01 0.96 0.96 92 1006.1
20260505184705 56 324 1.0 5.0 0.02 0.96 0.96 92 1006.0
20260505184214 56 250 2.0 5.0 0.02 0.96 0.96 92 1006.0
20260505183705 56 222 2.0 4.0 0.02 0.96 0.96 92 1006.0
20260505182706 56 286 2.0 4.0 0.03 0.96 0.96 92 1005.8
20260505182205 56 331 2.0 4.0 0.03 0.95 0.95 92 1005.8
20260505181208 56 277 2.0 5.0 0.05 0.95 0.95 92 1005.9
20260505180705 56 8 2.0 5.0 0.06 0.95 0.95 92 1005.8
20260505175705 56 245 3.0 6.0 0.07 0.95 0.95 92 1006.0
20260505175205 56 252 3.0 6.0 0.08 0.94 0.94 92 1005.9
20260505174705 56 269 3.0 6.0 0.09 0.94 0.94 92 1005.9
20260505174206 56 293 3.0 4.0 0.10 0.94 0.94 91 1005.9
20260505173706 56 253 2.0 4.0 0.11 0.94 0.94 91 1005.9
20260505173205 56 252 2.0 4.0 0.11 0.93 0.93 91 1005.9
20260505172706 56 319 2.0 4.0 0.12 0.92 0.92 91 1006.0
20260505171706 56 269 1.0 4.0 0.13 0.91 0.91 91 1005.9
20260505171208 56 300 2.0 4.0 0.15 0.90 0.90 91 1005.9
20260505170705 56 290 2.0 4.0 0.17 0.89 0.89 91 1005.9
20260505170206 56 272 2.0 4.0 0.18 0.88 0.88 91 1006.0
20260505165706 56 300 2.0 4.0 0.19 0.87 0.87 90 1005.9
20260505165208 56 286 2.0 4.0 0.19 0.86 0.86 90 1005.9
20260505164706 56 252 2.0 4.0 0.20 0.85 0.84 90 1006.1
20260505163205 56 253 2.0 5.0 0.43 0.82 0.81 90 1006.4
20260505162705 56 269 2.0 5.0 0.49 0.80 0.80 90 1006.4
20260505162205 56 238 2.0 5.0 0.54 0.79 0.79 90 1006.5
20260505161708 56 283 2.0 8.0 0.64 0.77 0.77 89 1006.6
20260505161205 56 257 4.0 8.0 0.73 0.75 0.75 89 1006.7